Hourly Data Report for January 09, 2004

All times are specified in Local Standard Time (LST). Add 1 hour to adjust for Daylight Saving Time where and when it is observed.

SHERBROOKE A
QUEBEC

45°26'00.000" N
71°41'00.000" W
241.40 m
7028124
71610
YSC

Download Data

Hourly Data (January 2004)
Hourly Data Report for January 9, 2004
TIME Temp Definition
°C
Dew Point Definition
°C
Rel Hum Definition
%
Wind Dir Definition
10's deg

Wind Spd Definition
km/h
Visibility Definition
km
Stn Press Definition
kPa
Hmdx Definition


Wind Chill Definition


Weather Definition


00:00 -30.1 -35.3 60 25 9 15.0 99.52   -39  
01:00 -33.8 -39.1 59 20 6 15.0 99.55   -41  
02:00 -34.1 -39.4 59 24 6 15.0 99.58   -41  
03:00 -33.1 -38.7 57 23 6 15.0 99.60   -40  
04:00 -34.4 -39.2 62 26 4 15.0 99.61   -39  
05:00 -36.7 -41.8 59 27 4 15.0 99.59   -42  
06:00 -31.2 -36.1 62 25 11 15.0 99.57   -41  
07:00 -32.8 -37.5 63   0 3.9 99.66      
08:00 -31.7 -37.5 56 24 7 24.1 99.71   -39 Mainly Clear
09:00 -30.0 -34.9 62 27 15 24.1 99.76   -41 Clear
10:00 -28.4 -33.4 62 27 17 24.1 99.82   -40 Mainly Clear
11:00 -27.2 -33.5 55 27 19 24.1 99.80   -39 Mainly Clear
12:00 -25.6 -32.9 50 28 15 24.1 99.76   -36 Mainly Clear
13:00 -25.0 -32.9 48 29 17 24.1 99.71   -36 Mainly Clear
14:00 -24.3 -32.7 46 29 20 24.1 99.71   -36 Clear
15:00 -24.3 -32.6 46 29 22 24.1 99.74   -36 Clear
16:00 -25.2 -33.0 48 28 17 24.1 99.79   -36 Clear
17:00 -26.4 -33.5 51 27 9 24.1 99.80   -34 Clear
18:00 -26.8 -33.4 54 23 7 15.0 99.83   -34  
19:00 -27.4 -32.7 61 23 7 15.0 99.84   -34  
20:00 -29.9 -34.9 62 19 7 15.0 99.83   -37  
21:00 -30.7 -35.6 62 20 6 15.0 99.83   -37  
22:00 -32.7 -37.3 63 17 4 15.0 99.83   -37  
23:00 -29.9 -34.3 65 21 4 15.0 99.81   -34  

Notes on Data Quality.

Legend

  • E = Estimated
  • M = Missing
  • NA = Not Available
Date modified: